Regional Weather Roundup
Issued by NWS

Home | Current Version | Previous Version | Text Only | Print | Product List | Glossary Off
Versions: 1 2 3 4 5 6 7 8 9 10 11 12 13 14 15 16 17 18 19 20 21 22 23 24 25 26 27 28 29 30 31 32 33 34 35 36 37 38 39 40 41 42 43 44 45 46 47 48 49 50

000
ASUS43 KLMK 221710
RWRKY
KENTUCKY REGIONAL WEATHER ROUNDUP
NATIONAL WEATHER SERVICE LOUISVILLE KY
100 PM EDT SAT APR 22 2017

NOTE "FAIR" INDICATES FEW OR NO CLOUDS BELOW 12,000 FEET
WITH NO SIGNIFICANT WEATHER AND/OR OBSTRUCTIONS TO VISIBILITY.

KYZ001>023-026-027-061>063-070>075-221800-
WESTERN AND SOUTH CENTRAL KENTUCKY

CITY           SKY/WX    TMP DP  RH WIND       PRES   REMARKS
PADUCAH        LGT RAIN  49  46  90 NE14      29.97F FOG
HENDERSON      LGT RAIN  48  46  93 NE14      30.03R
OWENSBORO      RAIN      49  46  90 NE12      30.02S FOG
HOPKINSVILLE   LGT RAIN  54  52  94 N20       29.94R
BOWLING GREEN  RAIN      55  54  96 NE15      29.94F FOG
GLASGOW        CLOUDY    53  53 100 N7        29.97R
$$

KYZ024-025-028>034-038-045-046-053-221800-
NORTH CENTRAL KENTUCKY

CITY           SKY/WX    TMP DP  RH WIND       PRES   REMARKS
LOUISVILLE/SDF CLOUDY    49  45  86 NE13      30.06R
LOUISVILLE/LOU CLOUDY    49  44  83 NE6G18    30.06R
FORT KNOX      LGT RAIN  46  46 100 N13       30.02R FOG
$$

KYZ035>037-039>044-047>052-055>060-089>105-221800-
NORTHEAST KENTUCKY

CITY           SKY/WX    TMP DP  RH WIND       PRES   REMARKS
LEXINGTON      LGT RAIN  49  46  90 NE14      30.02R FOG
COVINGTON      CLOUDY    50  38  63 NE18      30.06F
FRANKFORT      CLOUDY    48  43  82 N13G18    30.03R
$$

KYZ054-064>069-076>088-106>120-221800-
SOUTHEAST KENTUCKY

CITY           SKY/WX    TMP DP  RH WIND       PRES   REMARKS
JACKSON        CLOUDY    49  48  97 VRB5      29.97R
LONDON         CLOUDY    54  49  83 NE7       29.96R
SOMERSET       CLOUDY    54  52  94 E6        29.96F
MIDDLESBORO    CLOUDY    58  56  93 CALM      29.94R
MONTICELLO     CLOUDY    57  53  86 VRB7      29.95F
$$





USA.gov is the U.S. government's official web portal to all federal, state and local government web resources and services.